PIMOHWEATHER Station Historical Data
Daily Summary for June 06, 2020 Units:  Metric    English   Both
Daily Weekly Monthly Yearly
  High: Low: Average:
Temperature: 38.0 °C 29.0 °C 32.3 °C
Dew Point: 28.0 °C 25.0 °C 25.7 °C
Humidity: 82% 52% 69%
Wind Speed: 37km/h 0km/h 6.1km/h
Wind Gust: 44km/h - -
Wind- - SSE
Pressure: 1008.4 hPa 1004.3 hPa -
Precipitation: 0.00 mm    
 
 
Tabular Data for June 06, 2020
Time Temperature Dew Point Pressure Wind Wind Speed Wind Gust Humidity Rainfall Rate (Hourly) solar
00:04 30.0 °C 26.0 °C 1008.2 hPa NNE 6 km/h 8 km/h 79% 0.00 mm 0.00 W/m2
00:09 30.0 °C 26.0 °C 1008.0 hPa NNE 5 km/h 8 km/h 79% 0.00 mm 0.00 W/m2
00:14 30.0 °C 26.0 °C 1008.3 hPa North 8 km/h 8 km/h 79% 0.00 mm 0.00 W/m2
00:19 30.0 °C 26.0 °C 1008.3 hPa NNE 6 km/h 8 km/h 79% 0.00 mm 0.00 W/m2
00:24 30.0 °C 26.0 °C 1008.3 hPa NNE 6 km/h 8 km/h 79% 0.00 mm 0.00 W/m2
00:29 30.0 °C 26.0 °C 1008.3 hPa North 6 km/h 12 km/h 79% 0.00 mm 0.00 W/m2
00:34 30.0 °C 26.0 °C 1008.3 hPa North 4 km/h 8 km/h 79% 0.00 mm 0.00 W/m2
00:39 30.0 °C 26.0 °C 1008.3 hPa NNE 4 km/h 8 km/h 79% 0.00 mm 0.00 W/m2
00:44 30.0 °C 26.0 °C 1008.3 hPa North 1 km/h 4 km/h 79% 0.00 mm 0.00 W/m2
00:49 30.0 °C 26.0 °C 1008.3 hPa Calm     79% 0.00 mm 0.00 W/m2
00:54 30.0 °C 26.0 °C 1008.3 hPa Calm     79% 0.00 mm 0.00 W/m2
00:59 30.0 °C 26.0 °C 1008.3 hPa Calm     79% 0.00 mm 0.00 W/m2
01:04 30.0 °C 26.0 °C 1008.3 hPa North 3 km/h 4 km/h 79% 0.00 mm 0.00 W/m2
01:09 29.0 °C 25.0 °C 1008.4 hPa Calm   4 km/h 79% 0.00 mm 0.00 W/m2
01:14 29.0 °C 25.0 °C 1008.0 hPa Calm   4 km/h 79% 0.00 mm 0.00 W/m2
01:19 29.0 °C 25.0 °C 1008.3 hPa NNE 5 km/h 8 km/h 79% 0.00 mm 0.00 W/m2
01:24 29.0 °C 25.0 °C 1007.9 hPa NNE 6 km/h 12 km/h 79% 0.00 mm 0.00 W/m2
01:27 29.0 °C 25.0 °C 1008.0 hPa North 3 km/h 4 km/h 80% 0.00 mm 0.00 W/m2
01:34 29.0 °C 25.0 °C 1007.9 hPa NNE 6 km/h 8 km/h 79% 0.00 mm 0.00 W/m2
01:39 29.0 °C 25.0 °C 1007.9 hPa NNE 7 km/h 8 km/h 79% 0.00 mm 0.00 W/m2
01:44 29.0 °C 25.0 °C 1007.9 hPa NNE 8 km/h 8 km/h 79% 0.00 mm 0.00 W/m2
01:49 29.0 °C 25.0 °C 1007.8 hPa North 9 km/h 12 km/h 80% 0.00 mm 0.00 W/m2
01:54 29.0 °C 25.0 °C 1007.7 hPa NNE 6 km/h 8 km/h 80% 0.00 mm 0.00 W/m2
01:59 29.0 °C 25.0 °C 1007.7 hPa North 6 km/h 8 km/h 80% 0.00 mm 0.00 W/m2
02:04 29.0 °C 25.0 °C 1007.8 hPa NNE 5 km/h 12 km/h 80% 0.00 mm 0.00 W/m2
02:09 29.0 °C 25.0 °C 1007.7 hPa North 4 km/h 8 km/h 80% 0.00 mm 0.00 W/m2
02:14 29.0 °C 25.0 °C 1007.5 hPa Calm     80% 0.00 mm 0.00 W/m2
02:19 29.0 °C 25.0 °C 1007.7 hPa Calm     80% 0.00 mm 0.00 W/m2
02:24 29.0 °C 25.0 °C 1007.7 hPa Calm     79% 0.00 mm 0.00 W/m2
02:29 29.0 °C 25.0 °C 1007.6 hPa Calm     79% 0.00 mm 0.00 W/m2
02:34 29.0 °C 25.0 °C 1007.6 hPa SSE 1 km/h 4 km/h 79% 0.00 mm 0.00 W/m2
02:39 29.0 °C 25.0 °C 1007.5 hPa Calm   4 km/h 79% 0.00 mm 0.00 W/m2
02:44 29.0 °C 25.0 °C 1007.5 hPa Calm     79% 0.00 mm 0.00 W/m2
02:49 29.0 °C 25.0 °C 1007.5 hPa Calm     79% 0.00 mm 0.00 W/m2
02:54 29.0 °C 25.0 °C 1007.4 hPa Calm     79% 0.00 mm 0.00 W/m2
02:59 29.0 °C 25.0 °C 1007.4 hPa Calm     79% 0.00 mm 0.00 W/m2
03:04 29.0 °C 25.0 °C 1007.4 hPa East 1 km/h 4 km/h 79% 0.00 mm 0.00 W/m2
03:09 29.0 °C 25.0 °C 1007.5 hPa Calm     79% 0.00 mm 0.00 W/m2
03:14 29.0 °C 25.0 °C 1007.3 hPa Calm     78% 0.00 mm 0.00 W/m2
03:19 29.0 °C 25.0 °C 1007.3 hPa Calm   4 km/h 78% 0.00 mm 0.00 W/m2
03:24 29.0 °C 25.0 °C 1007.3 hPa ESE 1 km/h 4 km/h 78% 0.00 mm 0.00 W/m2
03:29 29.0 °C 25.0 °C 1007.2 hPa Calm     78% 0.00 mm 0.00 W/m2
03:34 29.0 °C 25.0 °C 1007.2 hPa Calm     78% 0.00 mm 0.00 W/m2
03:39 29.0 °C 25.0 °C 1007.3 hPa Calm     78% 0.00 mm 0.00 W/m2
03:44 29.0 °C 25.0 °C 1007.3 hPa Calm     77% 0.00 mm 0.00 W/m2
03:49 29.0 °C 25.0 °C 1007.4 hPa Calm     77% 0.00 mm 0.00 W/m2
03:54 29.0 °C 25.0 °C 1007.4 hPa Calm     77% 0.00 mm 0.00 W/m2
03:59 29.0 °C 25.0 °C 1007.4 hPa Calm     77% 0.00 mm 0.00 W/m2
04:04 29.0 °C 25.0 °C 1007.6 hPa Calm     77% 0.00 mm 0.00 W/m2
04:09 29.0 °C 25.0 °C 1007.6 hPa Calm     77% 0.00 mm 0.00 W/m2
04:14 29.0 °C 25.0 °C 1007.4 hPa Calm     77% 0.00 mm 0.00 W/m2
04:19 29.0 °C 25.0 °C 1007.4 hPa Calm     77% 0.00 mm 0.00 W/m2
04:24 29.0 °C 25.0 °C 1007.4 hPa Calm     78% 0.00 mm 0.00 W/m2
04:29 29.0 °C 25.0 °C 1007.7 hPa Calm     77% 0.00 mm 0.00 W/m2
04:34 29.0 °C 25.0 °C 1007.8 hPa Calm     77% 0.00 mm 0.00 W/m2
04:39 29.0 °C 25.0 °C 1007.8 hPa Calm     78% 0.00 mm 0.00 W/m2
04:44 29.0 °C 25.0 °C 1007.8 hPa Calm     78% 0.00 mm 0.00 W/m2
04:49 29.0 °C 25.0 °C 1007.9 hPa Calm     78% 0.00 mm 0.00 W/m2
04:54 29.0 °C 25.0 °C 1007.9 hPa Calm     78% 0.00 mm 0.00 W/m2
04:59 29.0 °C 25.0 °C 1007.8 hPa Calm     78% 0.00 mm 0.00 W/m2
05:04 29.0 °C 25.0 °C 1007.9 hPa Calm     78% 0.00 mm 0.00 W/m2
05:09 29.0 °C 25.0 °C 1007.9 hPa Calm     78% 0.00 mm 0.00 W/m2
05:14 29.0 °C 25.0 °C 1007.9 hPa Calm     78% 0.00 mm 0.00 W/m2
05:19 29.0 °C 25.0 °C 1007.8 hPa Calm     78% 0.00 mm 0.00 W/m2
05:24 29.0 °C 25.0 °C 1007.8 hPa Calm     78% 0.00 mm 1.02 W/m2
05:29 29.0 °C 25.0 °C 1007.9 hPa Calm     77% 0.00 mm 4.38 W/m2
05:34 29.0 °C 25.0 °C 1007.8 hPa Calm     77% 0.00 mm 8.77 W/m2
05:39 29.0 °C 25.0 °C 1007.8 hPa Calm     77% 0.00 mm 22.71 W/m2
05:44 29.0 °C 25.0 °C 1007.8 hPa Calm     77% 0.00 mm 32.87 W/m2
05:49 29.0 °C 25.0 °C 1007.7 hPa Calm     77% 0.00 mm 41.92 W/m2
05:54 29.0 °C 25.0 °C 1007.6 hPa Calm     77% 0.00 mm 51.62 W/m2
05:59 29.0 °C 25.0 °C 1007.7 hPa Calm     77% 0.00 mm 39.24 W/m2
06:04 29.0 °C 25.0 °C 1007.7 hPa Calm     76% 0.00 mm 39.79 W/m2
06:09 29.0 °C 25.0 °C 1007.5 hPa Calm     76% 0.00 mm 44.14 W/m2
06:14 30.0 °C 25.0 °C 1007.8 hPa Calm   4 km/h 76% 0.00 mm 48.35 W/m2
06:19 30.0 °C 25.0 °C 1007.7 hPa Calm     75% 0.00 mm 151.33 W/m2
06:24 30.0 °C 25.0 °C 1007.8 hPa Calm     75% 0.00 mm 166.59 W/m2
06:29 30.0 °C 25.0 °C 1007.8 hPa Calm     75% 0.00 mm 182.10 W/m2
06:34 31.0 °C 25.0 °C 1007.8 hPa East 1 km/h 4 km/h 74% 0.00 mm 197.52 W/m2
06:39 31.0 °C 26.0 °C 1007.8 hPa Calm     73% 0.00 mm 212.30 W/m2
06:44 31.0 °C 25.0 °C 1007.7 hPa East 1 km/h 4 km/h 71% 0.00 mm 229.06 W/m2
06:49 32.0 °C 25.0 °C 1007.8 hPa Calm   4 km/h 70% 0.00 mm 236.89 W/m2
06:54 32.0 °C 26.0 °C 1007.7 hPa Calm   4 km/h 70% 0.00 mm 247.46 W/m2
06:59 32.0 °C 26.0 °C 1008.0 hPa NE 4 km/h 8 km/h 68% 0.00 mm 255.19 W/m2
07:04 33.0 °C 26.0 °C 1008.1 hPa Calm   4 km/h 67% 0.00 mm 264.31 W/m2
07:09 33.0 °C 26.0 °C 1008.1 hPa East 4 km/h 8 km/h 66% 0.00 mm 268.65 W/m2
07:14 32.0 °C 26.0 °C 1008.2 hPa East 7 km/h 12 km/h 67% 0.00 mm 281.32 W/m2
07:19 32.0 °C 25.0 °C 1008.2 hPa ESE 8 km/h 12 km/h 68% 0.00 mm 287.80 W/m2
07:24 32.0 °C 25.0 °C 1008.4 hPa ESE 1 km/h 4 km/h 68% 0.00 mm 291.23 W/m2
07:29 32.0 °C 26.0 °C 1008.4 hPa SE 1 km/h 4 km/h 68% 0.00 mm 300.36 W/m2
07:34 33.0 °C 26.0 °C 1008.4 hPa ESE 4 km/h 4 km/h 68% 0.00 mm 306.50 W/m2
07:39 33.0 °C 26.0 °C 1008.3 hPa NNE 3 km/h 4 km/h 66% 0.00 mm 313.52 W/m2
07:44 33.0 °C 26.0 °C 1008.1 hPa ESE 1 km/h 4 km/h 66% 0.00 mm 320.25 W/m2
07:49 33.0 °C 26.0 °C 1008.2 hPa NNE 5 km/h 8 km/h 67% 0.00 mm 331.58 W/m2
07:54 33.0 °C 26.0 °C 1008.2 hPa NE 2 km/h 4 km/h 67% 0.00 mm 340.63 W/m2
07:59 33.0 °C 25.0 °C 1008.2 hPa North 8 km/h 8 km/h 66% 0.00 mm 340.70 W/m2
08:04 33.0 °C 25.0 °C 1008.1 hPa NNE 4 km/h 4 km/h 67% 0.00 mm 342.05 W/m2
08:09 33.0 °C 25.0 °C 1008.1 hPa NNE 10 km/h 12 km/h 65% 0.00 mm 352.67 W/m2
08:14 33.0 °C 25.0 °C 1008.1 hPa Calm     65% 0.00 mm 364.88 W/m2
08:19 33.0 °C 25.0 °C 1008.0 hPa NNW 10 km/h 12 km/h 64% 0.00 mm 363.77 W/m2
08:24 33.0 °C 25.0 °C 1008.0 hPa North 6 km/h 8 km/h 64% 0.00 mm 366.88 W/m2
08:29 34.0 °C 25.0 °C 1008.0 hPa SE 5 km/h 8 km/h 62% 0.00 mm 367.20 W/m2
08:34 34.0 °C 26.0 °C 1008.1 hPa SSE 8 km/h 12 km/h 63% 0.00 mm 382.47 W/m2
08:39 34.0 °C 26.0 °C 1008.0 hPa SE 8 km/h 8 km/h 63% 0.00 mm 387.83 W/m2
08:44 34.0 °C 26.0 °C 1007.8 hPa South 5 km/h 8 km/h 63% 0.00 mm 399.91 W/m2
08:49 34.0 °C 26.0 °C 1007.9 hPa ENE 2 km/h 4 km/h 62% 0.00 mm 402.09 W/m2
08:54 34.0 °C 26.0 °C 1007.9 hPa East 4 km/h 8 km/h 62% 0.00 mm 406.67 W/m2
08:59 35.0 °C 26.0 °C 1007.8 hPa NE 9 km/h 12 km/h 61% 0.00 mm 415.25 W/m2
09:04 35.0 °C 25.0 °C 1008.0 hPa East 8 km/h 12 km/h 57% 0.00 mm 419.93 W/m2
09:09 35.0 °C 25.0 °C 1008.0 hPa SE 8 km/h 12 km/h 57% 0.00 mm 424.01 W/m2
09:14 36.0 °C 25.0 °C 1007.8 hPa East 2 km/h 4 km/h 57% 0.00 mm 430.28 W/m2
09:19 36.0 °C 25.0 °C 1008.0 hPa NE 11 km/h 16 km/h 56% 0.00 mm 437.05 W/m2
09:24 35.0 °C 26.0 °C 1008.0 hPa SE 5 km/h 8 km/h 59% 0.00 mm 435.17 W/m2
09:29 35.0 °C 26.0 °C 1007.9 hPa SE 8 km/h 16 km/h 58% 0.00 mm 438.28 W/m2
09:34 35.0 °C 26.0 °C 1008.1 hPa SSE 12 km/h 20 km/h 59% 0.00 mm 454.82 W/m2
09:39 35.0 °C 25.0 °C 1008.3 hPa SSW 9 km/h 12 km/h 58% 0.00 mm 472.09 W/m2
09:44 35.0 °C 26.0 °C 1008.1 hPa NW 13 km/h 16 km/h 61% 0.00 mm 470.23 W/m2
09:49 35.0 °C 27.0 °C 1008.2 hPa West 9 km/h 12 km/h 64% 0.00 mm 478.45 W/m2
09:54 35.0 °C 27.0 °C 1008.2 hPa SW 10 km/h 12 km/h 65% 0.00 mm 488.07 W/m2
09:59 35.0 °C 27.0 °C 1008.2 hPa SW 5 km/h 8 km/h 64% 0.00 mm 489.27 W/m2
10:04 35.0 °C 27.0 °C 1008.1 hPa South 12 km/h 16 km/h 65% 0.00 mm 487.21 W/m2
10:09 35.0 °C 27.0 °C 1008.0 hPa SW 9 km/h 12 km/h 64% 0.00 mm 482.02 W/m2
10:14 35.0 °C 27.0 °C 1008.0 hPa SSE 7 km/h 8 km/h 63% 0.00 mm 493.38 W/m2
10:19 35.0 °C 27.0 °C 1008.0 hPa NW 10 km/h 16 km/h 63% 0.00 mm 477.28 W/m2
10:24 35.0 °C 27.0 °C 1007.7 hPa West 12 km/h 20 km/h 62% 0.00 mm 494.75 W/m2
10:29 34.0 °C 26.0 °C 1007.7 hPa NW 14 km/h 16 km/h 64% 0.00 mm 493.33 W/m2
10:34 35.0 °C 27.0 °C 1007.6 hPa NW 9 km/h 12 km/h 62% 0.00 mm 506.52 W/m2
10:39 35.0 °C 26.0 °C 1007.7 hPa NW 19 km/h 24 km/h 63% 0.00 mm 506.25 W/m2
10:44 35.0 °C 26.0 °C 1007.7 hPa WNW 17 km/h 20 km/h 65% 0.00 mm 447.33 W/m2
10:49 34.0 °C 26.0 °C 1007.7 hPa NNW 13 km/h 20 km/h 65% 0.00 mm 471.41 W/m2
10:54 34.0 °C 26.0 °C 1007.6 hPa NW 14 km/h 16 km/h 65% 0.00 mm 505.32 W/m2
10:59 34.0 °C 26.0 °C 1007.4 hPa NW 14 km/h 16 km/h 64% 0.00 mm 511.56 W/m2
11:04 35.0 °C 26.0 °C 1007.4 hPa NNW 10 km/h 16 km/h 63% 0.00 mm 520.95 W/m2
11:09 35.0 °C 26.0 °C 1007.2 hPa South 14 km/h 16 km/h 62% 0.00 mm 520.41 W/m2
11:14 35.0 °C 26.0 °C 1007.1 hPa NW 15 km/h 20 km/h 62% 0.00 mm 520.88 W/m2
11:19 35.0 °C 26.0 °C 1006.9 hPa NW 13 km/h 16 km/h 61% 0.00 mm 529.66 W/m2
11:24 35.0 °C 26.0 °C 1007.0 hPa NW 15 km/h 16 km/h 60% 0.00 mm 523.89 W/m2
11:29 35.0 °C 26.0 °C 1006.9 hPa SSW 5 km/h 8 km/h 59% 0.00 mm 533.23 W/m2
11:34 35.0 °C 26.0 °C 1006.7 hPa North 17 km/h 20 km/h 58% 0.00 mm 522.81 W/m2
11:39 35.0 °C 25.0 °C 1006.9 hPa North 12 km/h 16 km/h 60% 0.00 mm 546.59 W/m2
11:44 36.0 °C 26.0 °C 1006.7 hPa ESE 6 km/h 12 km/h 59% 0.00 mm 559.95 W/m2
11:49 36.0 °C 26.0 °C 1006.6 hPa Calm     57% 0.00 mm 596.43 W/m2
11:54 36.0 °C 26.0 °C 1006.7 hPa Calm   4 km/h 56% 0.00 mm 572.85 W/m2
11:59 36.0 °C 26.0 °C 1006.5 hPa NNW 11 km/h 12 km/h 57% 0.00 mm 189.74 W/m2
12:04 36.0 °C 26.0 °C 1006.5 hPa East 17 km/h 20 km/h 58% 0.00 mm 545.08 W/m2
12:09 35.0 °C 26.0 °C 1006.6 hPa South 37 km/h 44 km/h 60% 0.00 mm 156.61 W/m2
12:14 34.0 °C 26.0 °C 1006.5 hPa NNE 10 km/h 12 km/h 61% 0.00 mm 541.19 W/m2
12:19 35.0 °C 26.0 °C 1006.4 hPa North 3 km/h 4 km/h 61% 0.00 mm 429.20 W/m2
12:24 35.0 °C 26.0 °C 1006.2 hPa NNE 8 km/h 8 km/h 59% 0.00 mm 581.73 W/m2
12:29 36.0 °C 26.0 °C 1006.2 hPa ENE 5 km/h 8 km/h 58% 0.00 mm 562.08 W/m2
12:34 36.0 °C 26.0 °C 1006.3 hPa NNE 5 km/h 8 km/h 56% 0.00 mm 598.95 W/m2
12:39 36.0 °C 26.0 °C 1006.2 hPa SE 9 km/h 12 km/h 57% 0.00 mm 183.62 W/m2
12:44 36.0 °C 26.0 °C 1006.1 hPa SE 17 km/h 24 km/h 57% 0.00 mm 599.15 W/m2
12:49 36.0 °C 26.0 °C 1006.0 hPa East 6 km/h 8 km/h 57% 0.00 mm 182.06 W/m2
12:54 36.0 °C 26.0 °C 1006.1 hPa ESE 9 km/h 16 km/h 58% 0.00 mm 573.68 W/m2
12:59 36.0 °C 26.0 °C 1006.0 hPa ENE 5 km/h 8 km/h 58% 0.00 mm 561.45 W/m2
13:04 36.0 °C 26.0 °C 1005.9 hPa ENE 7 km/h 8 km/h 59% 0.00 mm 453.08 W/m2
13:09 35.0 °C 26.0 °C 1005.8 hPa North 10 km/h 12 km/h 60% 0.00 mm 195.29 W/m2
13:14 35.0 °C 26.0 °C 1005.7 hPa North 1 km/h 4 km/h 60% 0.00 mm 160.23 W/m2
13:19 35.0 °C 26.0 °C 1005.7 hPa NNE 3 km/h 4 km/h 59% 0.00 mm 179.98 W/m2
13:24 36.0 °C 26.0 °C 1005.7 hPa East 5 km/h 8 km/h 59% 0.00 mm 127.03 W/m2
13:29 36.0 °C 26.0 °C 1005.6 hPa ENE 8 km/h 8 km/h 61% 0.00 mm 155.29 W/m2
13:33 35.0 °C 26.0 °C 1005.5 hPa NE 12 km/h 16 km/h 61% 0.00 mm 144.89 W/m2
13:38 35.0 °C 26.0 °C 1005.5 hPa ESE 4 km/h 8 km/h 61% 0.00 mm 158.76 W/m2
13:44 35.0 °C 27.0 °C 1005.5 hPa NW 9 km/h 12 km/h 63% 0.00 mm 136.99 W/m2
13:49 35.0 °C 27.0 °C 1005.4 hPa WNW 14 km/h 16 km/h 64% 0.00 mm 305.15 W/m2
13:54 35.0 °C 27.0 °C 1005.4 hPa NW 9 km/h 12 km/h 63% 0.00 mm 144.28 W/m2
13:59 35.0 °C 27.0 °C 1005.3 hPa NNW 7 km/h 12 km/h 64% 0.00 mm 151.72 W/m2
14:04 35.0 °C 27.0 °C 1005.2 hPa NW 5 km/h 8 km/h 63% 0.00 mm 244.03 W/m2
14:09 35.0 °C 27.0 °C 1005.3 hPa North 13 km/h 16 km/h 63% 0.00 mm 506.88 W/m2
14:14 36.0 °C 27.0 °C 1005.2 hPa ENE 3 km/h 4 km/h 63% 0.00 mm 546.76 W/m2
14:19 37.0 °C 27.0 °C 1005.3 hPa ESE 6 km/h 8 km/h 59% 0.00 mm 580.87 W/m2
14:24 37.0 °C 27.0 °C 1005.2 hPa SSE 8 km/h 8 km/h 57% 0.00 mm 580.99 W/m2
14:29 37.0 °C 27.0 °C 1005.1 hPa East 2 km/h 4 km/h 56% 0.00 mm 515.81 W/m2
14:34 37.0 °C 26.0 °C 1005.2 hPa SE 5 km/h 8 km/h 57% 0.00 mm 161.43 W/m2
14:39 36.0 °C 26.0 °C 1005.0 hPa NE 1 km/h 4 km/h 57% 0.00 mm 573.43 W/m2
14:44 36.0 °C 26.0 °C 1005.0 hPa South 6 km/h 8 km/h 57% 0.00 mm 525.77 W/m2
14:49 36.0 °C 26.0 °C 1005.0 hPa SSE 4 km/h 8 km/h 57% 0.00 mm 179.22 W/m2
14:54 36.0 °C 26.0 °C 1005.0 hPa SSE 6 km/h 12 km/h 57% 0.00 mm 149.07 W/m2
14:59 36.0 °C 26.0 °C 1005.2 hPa SSE 9 km/h 16 km/h 57% 0.00 mm 130.99 W/m2
15:04 35.0 °C 26.0 °C 1005.1 hPa South 8 km/h 8 km/h 58% 0.00 mm 120.13 W/m2
15:09 36.0 °C 26.0 °C 1004.9 hPa SE 5 km/h 8 km/h 58% 0.00 mm 109.88 W/m2
15:14 35.0 °C 26.0 °C 1004.7 hPa ENE 8 km/h 8 km/h 58% 0.00 mm 131.46 W/m2
15:19 35.0 °C 26.0 °C 1004.8 hPa SE 6 km/h 8 km/h 58% 0.00 mm 145.84 W/m2
15:24 36.0 °C 26.0 °C 1004.8 hPa Calm     58% 0.00 mm 153.28 W/m2
15:29 36.0 °C 26.0 °C 1004.8 hPa ENE 4 km/h 4 km/h 57% 0.00 mm 176.65 W/m2
15:34 36.0 °C 26.0 °C 1004.8 hPa Calm     56% 0.00 mm 485.13 W/m2
15:39 37.0 °C 27.0 °C 1004.7 hPa Calm   4 km/h 56% 0.00 mm 504.17 W/m2
15:44 38.0 °C 26.0 °C 1004.6 hPa SE 2 km/h 4 km/h 54% 0.00 mm 533.09 W/m2
15:49 38.0 °C 27.0 °C 1004.6 hPa WNW 5 km/h 8 km/h 52% 0.00 mm 518.55 W/m2
15:54 38.0 °C 27.0 °C 1004.4 hPa West 37 km/h 44 km/h 56% 0.00 mm 520.56 W/m2
15:59 37.0 °C 27.0 °C 1004.3 hPa SW 18 km/h 24 km/h 59% 0.00 mm 197.62 W/m2
16:04 36.0 °C 27.0 °C 1004.5 hPa NW 14 km/h 20 km/h 63% 0.00 mm 426.09 W/m2
16:09 36.0 °C 27.0 °C 1004.5 hPa NNW 14 km/h 20 km/h 63% 0.00 mm 448.75 W/m2
16:14 36.0 °C 27.0 °C 1004.5 hPa West 12 km/h 16 km/h 61% 0.00 mm 446.18 W/m2
16:19 36.0 °C 27.0 °C 1004.4 hPa WNW 10 km/h 20 km/h 61% 0.00 mm 416.21 W/m2
16:24 36.0 °C 27.0 °C 1004.5 hPa NW 13 km/h 16 km/h 61% 0.00 mm 435.83 W/m2
16:29 36.0 °C 27.0 °C 1004.8 hPa WSW 11 km/h 16 km/h 59% 0.00 mm 440.38 W/m2
16:34 36.0 °C 27.0 °C 1004.8 hPa WNW 14 km/h 16 km/h 59% 0.00 mm 425.85 W/m2
16:39 36.0 °C 27.0 °C 1004.7 hPa WNW 10 km/h 16 km/h 59% 0.00 mm 399.23 W/m2
16:44 36.0 °C 27.0 °C 1004.8 hPa SW 17 km/h 20 km/h 58% 0.00 mm 395.29 W/m2
16:49 36.0 °C 26.0 °C 1004.8 hPa South 13 km/h 16 km/h 58% 0.00 mm 385.60 W/m2
16:54 37.0 °C 26.0 °C 1004.7 hPa WSW 9 km/h 12 km/h 57% 0.00 mm 365.22 W/m2
16:59 36.0 °C 26.0 °C 1004.6 hPa South 7 km/h 8 km/h 58% 0.00 mm 339.77 W/m2
17:04 37.0 °C 27.0 °C 1004.8 hPa SSW 5 km/h 8 km/h 57% 0.00 mm 324.92 W/m2
17:09 37.0 °C 27.0 °C 1004.8 hPa SSE 8 km/h 12 km/h 58% 0.00 mm 318.00 W/m2
17:14 36.0 °C 26.0 °C 1005.0 hPa South 10 km/h 12 km/h 57% 0.00 mm 293.87 W/m2
17:19 36.0 °C 25.0 °C 1005.0 hPa SSE 13 km/h 16 km/h 54% 0.00 mm 278.38 W/m2
17:24 36.0 °C 25.0 °C 1005.1 hPa South 10 km/h 12 km/h 54% 0.00 mm 254.09 W/m2
17:29 36.0 °C 25.0 °C 1005.3 hPa SE 9 km/h 12 km/h 54% 0.00 mm 218.98 W/m2
17:34 36.0 °C 25.0 °C 1005.5 hPa SE 12 km/h 12 km/h 55% 0.00 mm 173.13 W/m2
17:39 35.0 °C 25.0 °C 1005.3 hPa SE 10 km/h 12 km/h 55% 0.00 mm 130.85 W/m2
17:44 35.0 °C 25.0 °C 1005.4 hPa SSE 14 km/h 16 km/h 57% 0.00 mm 49.63 W/m2
17:49 35.0 °C 25.0 °C 1005.5 hPa SE 10 km/h 12 km/h 57% 0.00 mm 35.47 W/m2
17:54 35.0 °C 25.0 °C 1005.4 hPa SE 14 km/h 16 km/h 58% 0.00 mm 26.59 W/m2
17:59 34.0 °C 25.0 °C 1005.4 hPa SE 9 km/h 12 km/h 59% 0.00 mm 21.07 W/m2
18:04 34.0 °C 25.0 °C 1005.4 hPa ESE 12 km/h 16 km/h 60% 0.00 mm 12.25 W/m2
18:09 34.0 °C 25.0 °C 1005.4 hPa SE 10 km/h 16 km/h 61% 0.00 mm 7.85 W/m2
18:14 34.0 °C 25.0 °C 1005.5 hPa SE 10 km/h 12 km/h 61% 0.00 mm 4.93 W/m2
18:19 34.0 °C 25.0 °C 1005.6 hPa SE 10 km/h 12 km/h 61% 0.00 mm 2.81 W/m2
18:24 34.0 °C 25.0 °C 1005.7 hPa ESE 9 km/h 12 km/h 61% 0.00 mm 0.58 W/m2
18:29 34.0 °C 26.0 °C 1005.8 hPa SSE 15 km/h 16 km/h 67% 0.00 mm 0.00 W/m2
18:34 33.0 °C 27.0 °C 1005.7 hPa SSE 10 km/h 16 km/h 71% 0.00 mm 0.00 W/m2
18:39 33.0 °C 27.0 °C 1005.8 hPa SSE 12 km/h 16 km/h 72% 0.00 mm 0.00 W/m2
18:44 33.0 °C 27.0 °C 1006.0 hPa SSE 12 km/h 20 km/h 73% 0.00 mm 0.00 W/m2
18:49 33.0 °C 27.0 °C 1006.1 hPa SSE 17 km/h 20 km/h 75% 0.00 mm 0.00 W/m2
18:54 32.0 °C 27.0 °C 1006.1 hPa SE 15 km/h 20 km/h 75% 0.00 mm 0.00 W/m2
18:59 32.0 °C 27.0 °C 1006.3 hPa SSE 7 km/h 8 km/h 75% 0.00 mm 0.00 W/m2
19:04 32.0 °C 28.0 °C 1006.4 hPa SSE 10 km/h 16 km/h 76% 0.00 mm 0.00 W/m2
19:09 32.0 °C 27.0 °C 1006.4 hPa SE 15 km/h 16 km/h 76% 0.00 mm 0.00 W/m2
19:14 32.0 °C 27.0 °C 1006.3 hPa SE 12 km/h 12 km/h 76% 0.00 mm 0.00 W/m2
19:19 32.0 °C 27.0 °C 1006.6 hPa SSE 10 km/h 12 km/h 76% 0.00 mm 0.00 W/m2
19:24 32.0 °C 27.0 °C 1006.6 hPa SE 8 km/h 8 km/h 75% 0.00 mm 0.00 W/m2
19:29 32.0 °C 27.0 °C 1006.8 hPa Calm     75% 0.00 mm 0.00 W/m2
19:34 32.0 °C 27.0 °C 1006.8 hPa NNW 12 km/h 16 km/h 75% 0.00 mm 0.00 W/m2
19:39 31.0 °C 26.0 °C 1006.9 hPa NNE 13 km/h 16 km/h 72% 0.00 mm 0.00 W/m2
19:44 31.0 °C 25.0 °C 1007.1 hPa North 9 km/h 12 km/h 71% 0.00 mm 0.00 W/m2
19:49 31.0 °C 25.0 °C 1007.2 hPa North 6 km/h 8 km/h 71% 0.00 mm 0.00 W/m2
19:54 31.0 °C 25.0 °C 1007.3 hPa NNE 3 km/h 4 km/h 71% 0.00 mm 0.00 W/m2
19:59 31.0 °C 25.0 °C 1007.2 hPa SSE 4 km/h 4 km/h 70% 0.00 mm 0.00 W/m2
20:04 31.0 °C 25.0 °C 1007.3 hPa SSE 3 km/h 4 km/h 70% 0.00 mm 0.00 W/m2
20:09 32.0 °C 26.0 °C 1007.2 hPa Calm     70% 0.00 mm 0.00 W/m2
20:14 32.0 °C 26.0 °C 1007.3 hPa North 9 km/h 12 km/h 73% 0.00 mm 0.00 W/m2
20:19 32.0 °C 26.0 °C 1007.5 hPa NW 17 km/h 24 km/h 77% 0.00 mm 0.00 W/m2
20:24 31.0 °C 26.0 °C 1007.6 hPa WNW 13 km/h 16 km/h 78% 0.00 mm 0.00 W/m2
20:29 30.0 °C 26.0 °C 1007.9 hPa NW 17 km/h 20 km/h 81% 0.00 mm 0.00 W/m2
20:34 29.0 °C 26.0 °C 1007.8 hPa NW 10 km/h 12 km/h 81% 0.00 mm 0.00 W/m2
20:39 30.0 °C 26.0 °C 1007.7 hPa NW 5 km/h 8 km/h 81% 0.00 mm 0.00 W/m2
20:44 30.0 °C 26.0 °C 1007.8 hPa NNW 4 km/h 8 km/h 79% 0.00 mm 0.00 W/m2
20:49 30.0 °C 26.0 °C 1008.1 hPa West 6 km/h 8 km/h 78% 0.00 mm 0.00 W/m2
20:54 30.0 °C 25.0 °C 1007.9 hPa South 9 km/h 12 km/h 76% 0.00 mm 0.00 W/m2
20:59 30.0 °C 25.0 °C 1007.5 hPa SSW 3 km/h 8 km/h 77% 0.00 mm 0.00 W/m2
21:04 30.0 °C 25.0 °C 1007.8 hPa NW 3 km/h 4 km/h 77% 0.00 mm 0.00 W/m2
21:09 30.0 °C 25.0 °C 1008.0 hPa NW 10 km/h 12 km/h 77% 0.00 mm 0.00 W/m2
21:14 30.0 °C 25.0 °C 1008.1 hPa NW 10 km/h 12 km/h 77% 0.00 mm 0.00 W/m2
21:19 30.0 °C 25.0 °C 1008.1 hPa NW 9 km/h 16 km/h 78% 0.00 mm 0.00 W/m2
21:24 29.0 °C 25.0 °C 1007.9 hPa NW 10 km/h 12 km/h 79% 0.00 mm 0.00 W/m2
21:29 29.0 °C 25.0 °C 1007.9 hPa NW 10 km/h 12 km/h 78% 0.00 mm 0.00 W/m2
21:34 30.0 °C 25.0 °C 1007.9 hPa North 5 km/h 8 km/h 77% 0.00 mm 0.00 W/m2
21:39 30.0 °C 25.0 °C 1008.0 hPa Calm     76% 0.00 mm 0.00 W/m2
21:44 30.0 °C 25.0 °C 1008.0 hPa Calm     76% 0.00 mm 0.00 W/m2
21:49 30.0 °C 25.0 °C 1008.1 hPa Calm     76% 0.00 mm 0.00 W/m2
21:54 30.0 °C 25.0 °C 1008.4 hPa Calm     76% 0.00 mm 0.00 W/m2
21:59 30.0 °C 25.0 °C 1008.4 hPa WNW 4 km/h 8 km/h 77% 0.00 mm 0.00 W/m2
22:04 30.0 °C 25.0 °C 1008.1 hPa Calm     77% 0.00 mm 0.00 W/m2
22:09 30.0 °C 25.0 °C 1008.1 hPa Calm   4 km/h 76% 0.00 mm 0.00 W/m2
22:14 30.0 °C 25.0 °C 1008.2 hPa NNW 5 km/h 8 km/h 76% 0.00 mm 0.00 W/m2
22:19 30.0 °C 25.0 °C 1008.1 hPa NNE 6 km/h 8 km/h 76% 0.00 mm 0.00 W/m2
22:24 30.0 °C 25.0 °C 1008.1 hPa North 5 km/h 8 km/h 76% 0.00 mm 0.00 W/m2
22:29 30.0 °C 25.0 °C 1008.0 hPa NNE 9 km/h 12 km/h 77% 0.00 mm 0.00 W/m2
22:34 30.0 °C 26.0 °C 1008.1 hPa NNE 9 km/h 12 km/h 79% 0.00 mm 0.00 W/m2
22:39 30.0 °C 26.0 °C 1008.1 hPa North 10 km/h 12 km/h 81% 0.00 mm 0.00 W/m2
22:44 29.0 °C 26.0 °C 1008.1 hPa NE 3 km/h 8 km/h 82% 0.00 mm 0.00 W/m2
22:49 29.0 °C 26.0 °C 1008.0 hPa North 6 km/h 8 km/h 82% 0.00 mm 0.00 W/m2
22:54 29.0 °C 26.0 °C 1008.2 hPa Calm     82% 0.00 mm 0.00 W/m2
22:59 29.0 °C 26.0 °C 1008.1 hPa North 11 km/h 16 km/h 82% 0.00 mm 0.00 W/m2
23:04 29.0 °C 25.0 °C 1008.0 hPa North 11 km/h 16 km/h 81% 0.00 mm 0.00 W/m2
23:09 29.0 °C 25.0 °C 1008.0 hPa NNE 9 km/h 12 km/h 81% 0.00 mm 0.00 W/m2
23:14 29.0 °C 25.0 °C 1008.0 hPa North 5 km/h 8 km/h 81% 0.00 mm 0.00 W/m2
23:19 29.0 °C 25.0 °C 1008.1 hPa NNE 3 km/h 8 km/h 80% 0.00 mm 0.00 W/m2
23:24 29.0 °C 26.0 °C 1008.1 hPa NNE 1 km/h 4 km/h 80% 0.00 mm 0.00 W/m2
23:29 29.0 °C 26.0 °C 1008.1 hPa Calm     80% 0.00 mm 0.00 W/m2
23:34 29.0 °C 26.0 °C 1008.1 hPa Calm     81% 0.00 mm 0.00 W/m2
23:39 29.0 °C 26.0 °C 1008.1 hPa NNE 4 km/h 8 km/h 81% 0.00 mm 0.00 W/m2
23:44 29.0 °C 25.0 °C 1008.2 hPa NNE 5 km/h 8 km/h 81% 0.00 mm 0.00 W/m2
23:49 29.0 °C 25.0 °C 1008.0 hPa Calm     80% 0.00 mm 0.00 W/m2
23:54 29.0 °C 25.0 °C 1008.1 hPa Calm     80% 0.00 mm 0.00 W/m2
23:59 29.0 °C 25.0 °C 1008.0 hPa Calm     79% 0.00 mm 0.00 W/m2
PIMOHWEATHER Philippines
Compliments of Weather Underground - 2 mb